Location: Unspecified
(35.6895°N, 139.6917°E)
Time: 13:39:39
(UTC+00:00)

ASTRO H - Visible Passes

Search period start: 17 June 2019 00:00
Search period end: 27 June 2019 00:00
Orbit: 562 x 580 km, 31.0° (Epoch: 17 June)

Date Brightness Start Highest point End Pass type
(mag) Time Alt. Az. Time Alt. Az. Time Alt. Az.
17 Jun ? 11:26:13 10° SSW 11:27:48 16° S 11:27:48 16° S visible
18 Jun ? 11:25:58 10° SW 11:29:15 24° SSE 11:29:15 24° SSE visible
19 Jun ? 11:25:56 10° SW 11:29:41 30° SSE 11:30:22 28° SSE visible
20 Jun ? 11:26:03 10° SW 11:29:58 36° S 11:31:12 29° SE visible
21 Jun ? 11:26:16 10° WSW 11:30:17 41° S 11:31:49 29° SE visible
21 Jun ? 13:07:45 10° WSW 13:07:51 11° WSW 13:07:51 11° WSW visible
22 Jun ? 11:26:31 10° WSW 11:30:36 44° S 11:32:15 29° SE visible
22 Jun ? 13:08:10 10° WSW 13:08:17 11° WSW 13:08:17 11° WSW visible
23 Jun ? 11:26:50 10° WSW 11:30:56 45° S 11:32:35 29° SE visible
24 Jun ? 11:27:11 10° WSW 11:31:16 43° S 11:32:49 30° SE visible
25 Jun ? 11:27:35 10° WSW 11:31:34 38° S 11:33:00 29° SSE visible
26 Jun ? 11:28:01 10° WSW 11:31:52 33° SSW 11:33:10 27° SSE visible
